Location: Winthrop
(48.4780°N, 120.1850°W)
Time: 23:09:53
(UTC-07:00)

A-11 Canister half - Pass Details

Date: 05 June 2023
Orbit: 1515 x 1684 km, 47.2° (Epoch: 29 September)

Event Time Altitude Azimuth Distance (km) Brightness Sun altitude
Exits shadow 00:48:03 16° 140° (SE) 3,360 10.3 -18.9°
Maximum altitude 00:49:50 17° 127° (SE) 3,290 10.4 -19.0°
Drops below altitude 10° 00:55:21 10° 91° (E) 3,787 11.0 -19.0°
Sets 00:59:49 0° 73° (ENE) 4,744 11.8 -19.0°
